Weather History for Kansas City, MO

Change the Weather History Date:

Tuesday, January 7, 2014

  Actual Average Record
Temperature  
Mean Temperature 19 °F -  
Max Temperature 37 °F 37 °F 66 °F (2008)
Min Temperature 1 °F 21 °F 1 °F (2014)
Degree Days  
Heating Degree Days 46    
Moisture  
Dew Point 8 °F    
Average Humidity 59    
Maximum Humidity 75    
Minimum Humidity 44    
Precipitation  
Precipitation 0.00 in - - ()
Sea Level Pressure  
Sea Level Pressure 30.24 in    
Wind  
Wind Speed 5 mph (SSW)    
Max Wind Speed 12 mph    
Max Gust Speed 17 mph    
Visibility 10 miles    
Events      
Averages and records for this station are not official NWS values.
T = Trace of Precipitation, MM = Missing Value Source: NWS Daily Summary

Daily Weather History Graph

Daily Weather History Graph

Search for Another Location

Airport:

Trip Planner

Search our weather history database for the weather conditions in past years. The results will help you decide how hot, cold, wet, or windy it might be!

Date:

Astronomy

Jan. 07, 2014 Rise Set
Actual Time 7:37 AM CST 5:11 PM CST
Civil Twilight 7:08 AM CST 5:41 PM CST
Nautical Twilight 6:34 AM CST 6:14 PM CST
Astronomical Twilight 6:02 AM CST 6:47 PM CST
Moon 11:30 AM CST (1/7) No Moon Set
Length of Visible Light 10h 33m
Length of Day
9h 34m
Waxing Crescent, 46% of the Moon is Illuminated
Jan 7
Waxing Crescent
Jan 7
First Quarter
Jan 15
Full
Jan 23
Last Quarter
Jan 30
New

Hourly Weather History & Observations

Time (CST) Temp. Windchill Dew Point Humidity Pressure Visibility Wind Dir Wind Speed Gust Speed Precip Events Conditions
12:54 AM 1.9 °F - -7.1 °F 66% 30.46 in 10.0 mi Calm Calm - N/A   Clear
1:54 AM 3.0 °F - -6.0 °F 66% 30.42 in 10.0 mi Calm Calm - N/A   Clear
2:54 AM 3.0 °F - -6.0 °F 66% 30.41 in 10.0 mi Calm Calm - N/A   Clear
3:54 AM 5.0 °F -8.1 °F -6.0 °F 61% 30.39 in 10.0 mi SSW 8.1 mph - N/A   Clear
4:54 AM 6.1 °F -9.5 °F -5.1 °F 60% 30.35 in 10.0 mi South 11.5 mph - N/A   Clear
5:54 AM 7.0 °F -4.5 °F -5.1 °F 58% 30.32 in 10.0 mi South 6.9 mph - N/A   Clear
6:54 AM 9.0 °F -3.2 °F -4.0 °F 56% 30.28 in 10.0 mi South 8.1 mph - N/A   Clear
7:54 AM 9.0 °F -5.1 °F -4.0 °F 56% 30.26 in 10.0 mi South 10.4 mph - N/A   Clear
8:54 AM 10.9 °F 0.2 °F -0.9 °F 59% 30.25 in 10.0 mi South 6.9 mph - N/A   Clear
9:54 AM 19.0 °F 8.2 °F 3.9 °F 52% 30.25 in 10.0 mi SW 9.2 mph 17.3 mph N/A   Clear
10:54 AM 21.9 °F 10.4 °F 6.1 °F 51% 30.21 in 10.0 mi SSW 11.5 mph - N/A   Clear
11:54 AM 28.0 °F 18.1 °F 10.0 °F 47% 30.16 in 10.0 mi SSW 11.5 mph - N/A   Clear
12:54 PM 30.9 °F 23.5 °F 12.0 °F 46% 30.12 in 10.0 mi WSW 8.1 mph - N/A   Clear
1:54 PM 34.0 °F 26.6 °F 14.0 °F 44% 30.10 in 10.0 mi SW 9.2 mph - N/A   Clear
2:54 PM 36.0 °F 28.0 °F 16.0 °F 44% 30.11 in 10.0 mi WSW 11.5 mph - N/A   Clear
3:54 PM 37.0 °F 32.4 °F 18.0 °F 46% 30.14 in 10.0 mi WSW 5.8 mph - N/A   Clear
4:54 PM 33.1 °F 26.9 °F 18.0 °F 54% 30.14 in 10.0 mi SSW 6.9 mph - N/A   Clear
5:54 PM 33.1 °F 27.7 °F 19.0 °F 56% 30.16 in 10.0 mi SW 5.8 mph - N/A   Overcast
6:54 PM 33.1 °F - 18.0 °F 54% 30.18 in 10.0 mi Calm Calm - N/A   Mostly Cloudy
7:54 PM 27.0 °F - 18.0 °F 69% 30.20 in 10.0 mi Calm Calm - N/A   Clear
8:54 PM 25.0 °F - 18.0 °F 75% 30.22 in 10.0 mi Calm Calm - N/A   Clear
9:54 PM 26.1 °F - 19.0 °F 75% 30.23 in 10.0 mi Calm Calm - N/A   Clear
10:54 PM 26.1 °F - 19.0 °F 75% 30.22 in 10.0 mi Calm Calm - N/A   Clear
11:54 PM 27.0 °F 21.6 °F 19.9 °F 75% 30.24 in 10.0 mi North 4.6 mph - N/A   Clear